Other Surface Observations
Issued by NWS Charleston, SC

Home | Current Version | Previous Version | Text Only | Print | Product List | Glossary On
Versions: 1 2 3 4 5 6 7 8 9 10 11 12 13 14 15 16 17 18 19 20 21 22 23 24 25 26 27 28 29 30 31 32 33 34 35 36 37 38 39 40 41 42 43 44 45 46 47 48 49 50
000
SXUS52 KCHS 161527
OSOCHS

MARINE OBSERVATIONS
NATIONAL WEATHER SERVICE CHARLESTON SC
1000 AM EST MON JAN 16 2017

...DOWNTOWN CHARLESTON AND HARBOR...

CITY           SKY/WX    TMP DP  RH WIND       PRES   REMARKS
WATERFRONT PRK   N/A     56  56 100 N5        30.36R

...LAKE MOULTRIE...

CITY           SKY/WX    TMP DP  RH WIND       PRES   REMARKS
PINOPOLIS      NOT AVBL

...LAKE AND SUPPLEMENTAL COASTAL OBSERVATIONS...

STATION/POSITION TIME  TEMP    WIND        PRES    WAVE   SWELL
                       AIR SEA DIR/SP/G            HT/PER HT/PER/DIR
                 (UTC) (F)     (DEG/KT/KT) (MB)    (FT/S) (FT/S/D)
FORT PULASKI     1500   58 55   60/ 12/ 16 1028.2
SAPELO ISLAND    1500   65      20/  4     1027.0
WINYAH BAY       1445   52      40/ 10     1029.0R
LAKE MURRAY      1520   55      70/  4/  8 1028.4
ACE BASIN NERRS  1445   58      40/  2     1028.0R


...C-MAN AND BUOY OBSERVATIONS...

STATION/POSITION TIME  TEMP    WIND        PRES    WAVE   SWELL
                       AIR SEA DIR/SP/G            HT/PER HT/PER/DIR
                 (UTC) (F)     (DEG/KT/KT) (MB)    (FT/S) (FT/S/D)
BUOY 41004       1450   69 71   30/ 10/ 10 1026.8R   4/10   3/110/10
BUOY 41008       1450   62 60   50/  6/  8 1026.7R   2/11   2/110/11
FOLLY BEACH CMAN 1500   56      20/  9/ 11 1028.9R
CAPERS NS BUOY   1508   53 54   30/ 12/ 16 1028.3R
FRIPP NS BUOY    1508   56 56   50/ 12/ 14 1027.7R
5E ST. MARYS GA  1500      62                N/A     2/12   2/110/12


STATION/POSITION TIME  TEMP    WIND        PRES    WAVE   SWELL
                       AIR SEA DIR/SP/G            HT/PER HT/PER/DIR
                 (UTC) (F)     (DEG/KT/KT) (MB)    (FT/S) (FT/S/D)
FRYING PAN BUOY  1510   63 71   30/ 16/ 19 1028.5
BUOY 41025       1450   58 74   30/ 17/ 19 1029.4R   4/ 5   2/ 70/ 8
CAPE LOOKOUT NC  1500   49      20/ 15/ 17 1029.8R
BUOY 41002       1450   69 71   80/  4/  6 1027.9R   4/ 8   3/ 40/ 8
BUOY 41010       NOT AVBL
ST AUGUSTINE FL  1500   66 64   10/  5/  5 1027.7R

$$




USA.gov is the U.S. government's official web portal to all federal, state and local government web resources and services.